Date,TemperatureHighF,TemperatureAvgF,TemperatureLowF,DewpointHighF,DewpointAvgF,DewpointLowF,HumidityHigh,HumidityAvg,HumidityLow,PressureMaxIn,PressureMinIn,WindSpeedMaxMPH,WindSpeedAvgMPH,GustSpeedMaxMPH,PrecipitationSumIn
2013-9-1,86.0,75.9,66.2,85.8,72.1,65.9,100,89,59,29.82,29.76,14,4,14,0.00
2013-9-2,73.4,66.2,57.2,65.0,57.4,55.1,100,74,58,30.04,29.89,14,5,14,0.00
2013-9-3,78.8,59.8,41.7,58.7,52.2,41.5,100,79,49,30.12,30.01,8,2,8,0.00
2013-9-4,86.4,72.7,48.7,71.9,65.0,48.5,100,78,61,30.12,30.04,7,2,7,0.00
2013-9-5,82.4,68.8,58.6,65.2,58.7,53.7,99,73,43,30.31,30.17,11,5,11,0.00
2013-9-6,90.3,71.2,53.1,73.5,62.1,49.9,92,74,56,30.22,29.95,6,2,6,0.00
2013-9-7,93.7,78.6,67.8,76.7,71.7,67.4,100,82,58,30.03,29.89,13,3,13,0.00
2013-9-8,79.9,73.1,59.5,68.6,63.9,57.5,96,74,60,30.13,29.96,19,8,19,0.00
2013-9-9,94.1,83.5,62.8,82.7,77.3,62.5,99,82,67,29.97,29.72,15,4,15,0.01
2013-9-10,94.8,87.6,70.0,76.2,73.8,68.8,100,65,54,29.92,29.78,11,4,11,0.00
2013-9-11,89.8,79.5,67.1,69.5,67.6,57.7,100,69,49,30.06,29.96,12,3,12,0.00
2013-9-12,72.5,62.1,53.1,59.5,54.3,45.3,100,78,51,30.20,29.99,14,4,14,0.00
2013-9-13,69.1,53.8,39.6,49.1,42.9,38.7,100,70,43,30.28,30.15,10,2,10,0.00
2013-9-14,76.3,58.0,36.9,53.7,47.0,36.0,100,70,44,30.16,29.98,10,2,10,0.00
2013-9-15,68.5,60.0,54.3,64.1,58.0,53.6,100,93,77,30.23,29.96,15,4,15,0.01
2013-9-16,69.1,55.8,37.0,49.8,44.7,36.8,100,71,44,30.44,30.31,11,4,11,0.72
2013-9-17,58.5,50.0,39.6,58.2,49.4,39.3,100,98,93,30.36,30.08,8,2,8,0.05
2013-9-18,82.4,73.5,57.0,74.6,68.9,56.7,99,86,75,30.07,29.84,12,4,12,0.04
2013-9-19,81.7,75.9,67.6,79.4,75.1,67.3,100,97,91,29.85,29.68,14,4,14,0.11
2013-9-20,68.4,62.8,57.9,66.5,61.4,57.7,100,95,80,29.84,29.73,11,3,11,0.02
2013-9-21,53.4,50.4,47.3,53.0,50.0,47.0,99,98,93,29.92,29.86,13,2,13,0.00
2013-9-22,46.9,40.6,35.1,46.5,40.3,34.8,99,99,99,30.09,30.00,6,2,6,0.00
2013-9-23,72.7,55.8,41.4,58.5,50.7,41.1,100,85,58,30.13,30.03,14,5,14,0.00
2013-9-24,78.4,58.5,41.4,61.0,52.3,41.1,99,83,53,30.06,29.97,8,4,8,0.00
2013-9-25,75.4,57.2,42.1,59.1,51.8,41.8,100,85,57,30.05,29.97,10,3,10,0.00
2013-9-26,80.4,62.2,42.6,63.9,55.1,42.4,99,79,53,30.09,30.01,10,4,10,0.00
2013-9-27,85.5,65.8,48.2,64.8,55.9,47.9,100,74,42,30.13,30.00,9,4,9,0.00
2013-9-28,81.3,65.3,54.7,68.4,60.5,51.6,100,86,58,30.02,29.78,19,6,19,0.37
2013-9-29,73.9,54.7,40.5,61.0,51.6,40.2,100,91,53,30.06,29.96,10,2,10,0.01
2013-9-30,76.6,58.9,45.9,56.8,51.2,45.6,99,79,48,29.97,29.78,14,4,14,0.00